Cosmos 1633 Rocket - Orbit

View from above orbital plane
View from above orbital plane
View from above satellite
View from above satellite

Ground track
Ground track

The orbit data is extracted from the following two-line orbital elements,

1 15593U 85020B   13137.28423749  .00000358  00000-0  40818-4 0  3469
2 15593 082.5396 217.9135 0010282 284.0604 133.4268 14.83335376523126
Epoch (UTC): 17 May 2013 06:49:18
Eccentricity: 0.0010282
inclination: 82.5396°
perigee height: 611 km
apogee height: 626 km
right ascension of ascending node: 217.9135°
argument of perigee: 284.0604°
revolutions per day: 14.83335376
mean anomaly at epoch: 133.4268°
orbit number at epoch: 52312

The dashed part of the orbit path shows where the satellite is in the earth's shadow,  

Developed and maintained by Chris Peat, Heavens-Above GmbH. Please read the updated FAQ before sending e-mail. Imprint. DLR